Location: Unspecified
(33.4390°N, 83.7350°W)
Time: 03:53:46
(UTC-04:00)

Daily predictions for brighter satellites

Satellite Brightness Start Highest point End
(mag) Time Altitude Azimuth Time Altitude Azimuth Time Altitude Azimuth
ATLAS 5 CENTAUR R/B 4.3 00:10:13 11° NE 00:10:13 11° NE 00:10:25 10° NE
Lacrosse 5 4.0 00:02:43 10° W 00:06:52 25° NW 00:11:01 10° NNE
CZ-2C R/B 3.4 00:09:09 66° W 00:09:09 66° W 00:14:56 10° NNW
Meteor 1-21 Rocket 4.5 00:09:05 63° W 00:09:26 64° W 00:15:16 10° N
Cosmos 1110 Rocket 4.5 00:07:51 10° NNW 00:12:08 55° WNW 00:12:08 55° WNW
Cosmos 1386 Rocket 4.4 00:11:43 10° N 00:17:41 72° W 00:17:41 72° W
USA 234 3.6 00:23:50 10° NE 00:28:51 51° ENE 00:28:51 51° ENE
CZ-2C R/B 3.5 00:26:49 10° N 00:31:57 43° WNW 00:32:04 43° WNW
ADEOS Rocket 3.7 00:30:50 10° NNE 00:35:20 44° ENE 00:35:20 44° ENE
Cosmos 2278 Rocket 3.0 00:50:17 46° WNW 00:50:17 46° WNW 00:55:35 10° N
USA 238 DEB 3.8 00:43:39 10° NW 00:50:25 67° W 00:50:25 67° W
USA 238 3.8 00:43:45 10° NW 00:50:32 68° W 00:50:32 68° W
Mayak 0.9 00:47:30 10° NNE 00:49:06 23° NNE 00:49:06 23° NNE
COSMOS 2406 4.3 00:48:49 10° NW 00:52:58 38° WNW 00:52:58 38° WNW
ATLAS 3B R/B 2.8 00:55:10 10° NNW 01:00:49 64° WNW 01:00:49 64° WNW
NOSS 3-2 (A) 3.9 00:58:46 10° NNW 01:06:36 86° WSW 01:06:52 84° SSW
CZ-4B R/B 4.5 01:17:29 10° N 01:21:12 46° N 01:21:12 46° N
Cosmos 2369 Rocket 4.3 01:26:05 17° ENE 01:26:05 17° ENE 01:28:04 10° NE
Cosmos 2074 Rocket 4.2 01:19:35 10° N 01:24:52 66° NNW 01:24:52 66° NNW
Cosmos 2297 4.4 01:28:25 50° NNW 01:28:25 50° NNW 01:32:53 10° NNE
NOSS 3-2 (C) 3.9 01:20:35 10° NNW 01:28:26 85° WSW 01:28:32 85° SW
Cosmos 2082 Rocket 3.0 01:36:45 10° NNW 01:40:50 48° NNW 01:40:50 48° NNW
ATLAS 5 CENTAUR R/B 3.8 01:51:43 22° NW 01:51:43 22° NW 01:54:50 10° N
H-2A R/B 4.5 01:57:47 17° NNW 01:57:47 17° NNW 01:58:49 10° NNW
Cosmos 1833 Rocket 3.9 01:50:38 10° NNW 01:54:01 35° NW 01:54:01 35° NW
Cosmos 2181 Rocket 4.3 02:02:48 61° NE 02:02:48 61° NE 02:08:18 10° NNE
Cosmos 2154 Rocket 4.3 01:58:23 10° N 02:03:48 65° NNW 02:03:48 65° NNW
Cosmos 2341 Rocket 4.2 02:05:53 10° N 02:11:37 71° NNE 02:11:37 71° NNE
CENTAUR R/B 3.0 02:07:08 10° NNW 02:15:23 86° WSW 02:16:04 78° S
Cosmos 2098 Rocket 4.5 02:11:17 10° N 02:18:41 61° E 02:19:03 60° E
Cosmos 1943 Rocket 3.0 02:23:39 42° ENE 02:23:39 42° ENE 02:27:39 10° NNE
Cosmos 2218 Rocket 4.3 02:23:52 10° N 02:29:50 57° ENE 02:29:50 57° ENE
BREEZE-M DEB (TANK) 4.2 02:34:08 80° SW 02:34:33 89° NW 02:38:28 10° NE
SL-8 Rocket 4.0 02:33:00 10° N 02:38:56 79° NNE 02:38:56 79° NNE
Meteor 2-3 Rocket 4.2 02:41:43 55° ENE 02:41:43 55° ENE 02:46:49 10° NNE
Lacrosse 4 Rocket 4.2 02:43:02 12° E 02:43:02 12° E 02:43:50 10° ENE
CZ-2D R/B 3.7 02:39:31 10° NE 02:43:41 25° E 02:43:41 25° E
Timation 2 Rocket 4.3 02:39:50 10° NNW 02:46:32 67° ENE 02:47:40 58° ESE
SL-16 R/B 4.1 02:43:58 20° ESE 02:46:57 29° ENE 02:52:09 10° N
Cosmos 1741 Rocket 4.4 02:55:01 59° N 02:55:01 59° N 02:59:22 10° NNE
CZ-4B R/B 4.4 03:04:07 13° N 03:04:07 13° N 03:04:32 10° N
Cosmos 2366 rocket 3.8 02:58:14 10° N 03:04:12 79° WNW 03:04:12 79° WNW
Cosmos 2369 Rocket 2.9 03:07:52 43° WNW 03:07:52 43° WNW 03:12:58 10° N
Nadezhda 3 Rocket 4.2 03:08:04 58° SE 03:08:52 63° E 03:15:09 10° NNE
Cosmos 1633 Rocket 4.5 03:13:17 32° NNW 03:13:17 32° NNW 03:15:57 10° N
Cosmos 1470 Rocket 4.4 03:16:49 50° N 03:16:49 50° N 03:20:09 10° N
IRS-1D 4.4 03:11:15 10° NNE 03:16:02 40° E 03:16:12 39° ESE
Meteor 2-15 Rocket 4.2 03:16:09 82° S 03:16:26 89° E 03:22:32 10° N
Resurs 1-4 Rocket 2.2 03:17:48 10° NNE 03:23:06 64° ESE 03:23:17 63° ESE
Meteor 2-15 4.4 03:25:28 61° W 03:25:36 61° W 03:31:36 10° N
Cosmos 1606 4.0 03:32:15 10° N 03:34:42 38° N 03:34:42 38° N
Cosmos 1933 Rocket 4.3 03:39:11 46° NNW 03:39:11 46° NNW 03:42:29 10° N
H-2A R/B 3.0 03:34:48 10° NNE 03:37:55 53° NNE 03:37:55 53° NNE
Cosmos 1570 Rocket 3.9 03:35:13 10° NNW 03:40:22 76° W 03:40:22 76° W
Cosmos 1825 3.9 03:42:06 26° NNW 03:42:06 26° NNW 03:44:05 10° N
H-II Stage 2 3.9 03:46:47 42° S 03:47:01 42° S 04:08:50 10° ESE
Cosmos 1437 Rocket 4.0 03:46:50 35° ESE 03:47:08 36° E 03:50:55 10° NNE
GP-B 3.8 03:43:57 10° N 03:47:26 43° NW 03:47:26 43° NW
Meteor 2-6 Rocket 4.4 03:43:58 10° N 03:49:20 65° E 03:51:13 40° SSE
Cosmos 2242 Rocket 4.4 03:48:18 10° NNW 03:51:34 38° NW 03:51:34 38° NW
Cosmos 1833 4.1 03:47:01 10° NNW 03:52:38 81° ENE 03:54:53 38° SSE
Cosmos 1782 3.3 03:49:51 10° N 03:52:57 52° NNW 03:52:57 52° NNW
AQUA 4.1 03:49:43 10° N 03:54:18 51° WNW 03:54:18 51° WNW
CZ-3C R/B 4.1 03:55:32 14° SSE 03:55:32 14° SSE 03:59:21 10° SE
Cosmos 1656 Rocket 3.9 03:56:02 51° W 03:56:53 56° WNW 04:02:26 10° N
Meteor 1-10 Rocket 4.2 03:53:46 10° N 03:59:22 83° E 04:01:26 41° SSE
Milstar 3 Cent rocket 4.2 03:53:11 29° SW 04:02:34 58° S 04:11:16 10° E
Meteor 1-27 Rocket 4.5 03:58:11 10° N 04:03:50 52° E 04:08:37 15° SSE
Cosmos 1821 Rocket 3.9 03:59:18 10° N 04:05:37 76° W 04:08:03 40° S
IRS-1C 4.3 04:00:57 10° N 04:06:08 53° WNW 04:07:02 47° WSW
Cosmos 1943 Rocket 3.9 04:05:09 17° WNW 04:06:19 18° WNW 04:10:02 10° NNW
Delta 2 Rocket 3.5 04:08:34 66° W 04:09:12 87° NNW 04:14:13 10° ENE
ATLAS 5 CENTAUR R/B 3.1 04:09:06 46° SW 04:10:49 80° NW 04:26:15 10° NE
ARIANE 5 R/B 2.4 04:07:53 10° N 04:12:52 73° WNW 04:14:00 52° SW
Cosmos 1869 Rocket 3.3 04:12:49 69° SSW 04:13:19 83° W 04:17:41 10° N
Lacrosse 4 Rocket 2.1 04:19:22 40° WNW 04:19:49 41° WNW 04:24:01 10° N
Cosmos 1862 3.6 04:21:46 48° WNW 04:21:46 48° WNW 04:25:32 10° N
ADEOS 3.7 04:17:44 10° NNE 04:22:57 69° ESE 04:25:30 30° S
Cosmos 1867 3.9 04:21:35 39° WSW 04:23:11 52° WNW 04:28:32 10° NNE
CZ-2D R/B 3.0 04:19:09 10° N 04:23:51 33° WNW 04:25:01 30° W
COSMOS 2455 3.9 04:18:19 10° NNW 04:24:05 46° ENE 04:29:50 10° SE
ATLAS 2A CENTAUR R/B 3.9 04:25:09 27° SSW 04:28:05 32° S 04:33:26 10° ESE
Cosmos 1763 Rocket 3.4 04:24:07 10° NNW 04:29:05 58° WSW 04:30:54 36° SSW
SL-16 R/B 3.1 04:29:04 33° SW 04:30:21 37° W 04:36:00 10° NNW
CZ-2D R/B 3.4 04:26:19 10° N 04:30:36 85° W 04:31:50 45° SSW
SEDSat Delta rocket 2.9 04:31:21 51° SSW 04:31:26 52° S 04:35:34 10° ESE
Cosmos 1703 Rocket 3.9 04:32:53 10° NNW 04:37:03 43° W 04:37:45 40° WSW
ADEOS II 2.2 04:33:26 10° NNE 04:38:42 72° ESE 04:42:10 22° S
Cosmos 1814 Rocket 4.1 04:34:09 10° NNW 04:39:16 52° WSW 04:41:48 28° SSW
ATLAS CENTAUR R/B 2.7 04:38:26 20° SSE 04:40:05 29° ESE 04:43:25 10° NE
BREEZE-M R/B 3.2 04:36:58 27° SW 04:40:56 73° SE 04:44:23 10° NE
Cosmos 1818 3.5 04:36:03 10° NNW 04:41:30 70° WSW 04:46:53 10° SSE
Cosmos 44 3.1 04:43:09 34° SSW 04:45:07 90° SSE 04:49:59 10° NNE
Meteor 1-4 Rocket 2.9 04:47:59 40° WSW 04:48:39 46° W 04:52:09 10° N
ASTEX 1 4.1 04:44:03 10° SSE 04:48:54 56° E 04:53:48 10° N
Cosmos 540 Rocket 3.4 04:49:05 10° NNW 04:54:14 89° E 04:59:20 10° SSE
UNKNOWN OBJECT B 3.5 04:52:29 10° N 04:56:13 39° WNW 04:57:39 28° WSW
Cosmos 841 Rocket 3.7 04:51:42 10° NNW 04:56:40 47° WSW 05:00:30 16° S
GPS 2-04 Rocket1 3.4 04:55:33 29° SSW 04:56:58 40° SSE 05:00:40 10° E
MINOTAUR IV R/B 4.5 04:52:42 10° NNW 04:57:11 72° WSW 05:01:36 10° S
Okean 1-7 3.8 04:54:28 10° NNW 04:58:26 34° W 04:59:53 27° SW
Cosmos 2227 Rocket 4.2 04:54:23 10° N 04:59:22 31° ENE 05:04:19 10° ESE
Cosmos 1605 Rocket 4.1 04:55:33 10° NNW 05:01:28 56° W 05:06:55 13° SSW
Resurs 1-4 Rocket 4.1 04:59:42 10° NW 05:02:19 14° WNW 05:04:21 11° W
Cosmos 1733 Rocket 2.9 05:01:16 19° S 05:04:18 80° W 05:08:38 10° N
TIMED 4.5 05:03:17 23° SSW 05:05:58 71° WNW 05:10:20 10° NNE
SAR-Lupe-2 4.3 05:07:34 26° SW 05:08:45 32° W 05:12:00 10° NNW
Helios 1A Rocket 3.9 05:06:10 10° N 05:09:43 30° WNW 05:11:33 21° WSW
Cosmos 1354 Rocket 4.5 05:07:10 21° SW 05:10:20 45° WNW 05:15:21 10° N
Cosmos 2100 Rocket 4.4 05:04:32 10° N 05:10:41 67° E 05:16:50 10° SSE
Cosmos 1184 Rocket 3.8 05:09:25 10° NNW 05:12:13 27° W 05:12:58 24° WSW
Cosmos 836 Rocket 4.5 05:10:52 10° NNW 05:16:11 80° WSW 05:21:28 10° S
Meteor 1-25 Rocket 4.2 05:11:07 10° S 05:16:42 86° W 05:22:16 10° N
Cosmos 1908 Rocket 4.3 05:13:47 10° S 05:18:07 54° E 05:22:28 10° NNE
Okean 3 4.0 05:14:03 10° N 05:18:12 61° E 05:22:21 10° SSE
Cosmos 1459 Rocket 4.3 05:12:35 10° N 05:18:58 73° E 05:25:18 10° SSE
Cosmos 1674 Rocket 3.8 05:15:04 10° N 05:19:23 68° E 05:23:39 10° SSE
Cosmos 389 Rocket 3.2 05:22:40 18° SW 05:24:56 38° W 05:28:21 10° N
CZ-4B R/B 3.6 05:21:17 10° NNE 05:25:18 56° E 05:29:29 10° S
GEOS 3 Rocket 3.7 05:28:45 10° NNE 05:34:00 72° NW 05:39:07 10° SW
Cosmos 2123 Rocket 4.4 05:29:50 10° S 05:35:59 68° E 05:42:07 10° NNE
Okean O Rocket 3.0 05:32:44 10° NNE 05:36:54 38° E 05:41:02 10° SSE
USA 229 DEB 3.9 05:30:49 10° NNW 05:38:07 80° WSW 05:45:33 10° SSE
USA 229 3.9 05:30:55 10° NNW 05:38:13 81° WSW 05:45:39 10° SSE
Cosmos 1656 3.8 05:32:53 10° SSW 05:38:34 72° WNW 05:44:15 10° NNE
SeaSat 1 3.2 05:34:55 10° SE 05:39:44 58° ENE 05:44:34 10° NNW
Cosmos 1602 3.8 05:37:41 10° S 05:41:32 79° E 05:45:24 10° N
Cosmos 1633 4.1 05:39:52 12° WSW 05:42:07 19° WNW 05:44:47 10° NNW
Sich 1 Rocket 3.8 05:39:38 10° S 05:44:06 75° E 05:48:33 10° N
Cosmos 1812 3.8 05:42:05 10° NNW 05:45:19 26° W 05:48:34 10° SSW
Cosmos 968 Rocket 4.3 05:46:23 10° SW 05:51:08 34° WNW 05:55:56 10° N
Delta 2 Rocket 4.2 05:47:14 10° W 05:52:00 68° N 05:57:23 10° E
Cosmos 1697 Rocket 2.7 05:47:11 10° SSW 05:52:49 87° WNW 05:58:31 10° NNE
Shenzhou-11 Module 4.3 05:51:35 10° S 05:53:27 16° SE 05:55:19 10° E
Geosat 4.1 05:50:31 10° NNE 05:55:29 63° WNW 06:00:26 10° SW
Cosmos 2173 Rocket 4.2 05:53:11 10° NNW 05:59:01 51° W 06:04:52 10° SSW
Cosmos 2369 4.2 05:55:23 10° SW 06:00:46 46° WNW 06:06:12 10° N
